Temp
-1 -2 -2 -3 -3 -3 -3 -3 -3 -3 -2 -2 -2 -3 -3 -3 -3 -3 -3 -3 -3 -3 -3 -3 -3 -3 -3 -3 -3 -3 -3 -2 -2 -2 -2 -1 -1 -0
-2 -3 -3 -3 -3 -3 -3 -3 -3 -3 -3 -3 -3 -3 -3 -3 -3 -3 -3 -3 -4 -4 -3 -3 -3 -3 -4 -4 -3 -3 -3 -3 -3 -2 -2 -2 -2 -1
-3 -3 -3 -3 -3 -4 -4 -4 -4 -4 -4 -4 -4 -4 -4 -4 -4 -4 -4 -4 -4 -4 -4 -4 -4 -4 -4 -4 -4 -4 -4 -4 -3 -3 -3 -2 -2 -2
-3 -4 -4 -4 -4 -4 -4 -4 -5 -5 -5 -5 -5 -5 -5 -5 -5 -5 -5 -5 -5 -5 -5 -5 -5 -5 -5 -5 -5 -5 -5 -5 -4 -4 -3 -3 -3 -3
-4 -4 -4 -4 -4 -5 -5 -5 -5 -5 -5 -6 -6 -6 -6 -6 -6 -6 -7 -7 -7 -7 -7 -7 -7 -7 -7 -7 -6 -6 -6 -5 -5 -5 -5 -4 -4 -3
-4 -4 -4 -5 -5 -5 -5 -5 -6 -6 -6 -6 -7 -7 -8 -8 -9 -9 -8 -8 -8 -9 -9 -9 -9 -9 -9 -8 -8 -8 -7 -7 -6 -6 -6 -5 -5 -4
-5 -5 -5 -5 -5 -5 -6 -6 -6 -7 -7 -8 -8 -9 -9 -10 -10 -10 -10 -11 -11 -11 -11 -11 -11 -11 -11 -11 -10 -10 -10 -9 -8 -8 -7 -7 -6 -6
-5 -5 -5 -6 -6 -6 -7 -8 -8 -9 -9 -10 -10 -11 -11 -11 -12 -12 -12 -12 -12 -13 -13 -12 -12 -12 -12 -12 -12 -12 -12 -11 -11 -10 -9 -8 -8 -7
-5 -6 -6 -6 -7 -7 -8 -9 -10 -10 -11 -12 -12 -12 -12 -12 -13 -14 -14 -14 -14 -14 -15 -15 -14 -14 -14 -13 -13 -13 -13 -13 -12 -12 -11 -11 -10 -10
-6 -6 -6 -7 -8 -9 -9 -10 -11 -11 -12 -12 -12 -12 -13 -14 -15 -16 -16 -16 -16 -15 -17 -16 -16 -16 -15 -15 -15 -15 -14 -14 -14 -13 -13 -12 -11 -11
-7 -7 -8 -9 -9 -10 -10 -11 -11 -11 -12 -12 -12 -13 -14 -16 -16 -17 -17 -17 -17 -17 -17 -17 -17 -17 -16 -16 -16 -16 -16 -15 -15 -14 -14 -13 -12 -12
-8 -9 -10 -10 -11 -11 -11 -11 -12 -12 -11 -12 -13 -14 -15 -16 -17 -17 -17 -18 -17 -17 -17 -18 -18 -18 -17 -16 -16 -16 -16 -16 -15 -15 -14 -14 -13 -13
-9 -10 -11 -11 -11 -12 -12 -13 -13 -12 -12 -13 -13 -14 -15 -16 -16 -17 -17 -18 -17 -17 -18 -19 -18 -18 -18 -17 -16 -16 -16 -16 -16 -16 -16 -15 -14 -14
-10 -11 -11 -12 -13 -13 -13 -13 -13 -13 -13 -14 -14 -15 -15 -16 -16 -17 -17 -17 -18 -18 -18 -19 -18 -18 -18 -17 -17 -17 -17 -17 -17 -16 -16 -15 -15 -14
-11 -12 -12 -13 -13 -13 -13 -13 -14 -14 -14 -14 -14 -15 -15 -16 -16 -17 -17 -17 -18 -18 -19 -19 -19 -18 -18 -18 -17 -17 -17 -16 -17 -17 -16 -16 -15 -15
-12 -13 -13 -13 -14 -14 -14 -14 -14 -14 -14 -14 -15 -15 -16 -16 -17 -17 -17 -17 -17 -18 -19 -19 -19 -19 -18 -18 -18 -17 -17 -17 -17 -17 -16 -16 -15 -15
-13 -13 -13 -14 -14 -14 -15 -15 -15 -15 -15 -15 -15 -16 -16 -16 -17 -17 -17 -17 -18 -18 -18 -19 -19 -19 -19 -18 -18 -18 -18 -17 -17 -17 -16 -15 -15 -14
-13 -14 -14 -14 -14 -14 -14 -15 -15 -15 -15 -15 -15 -16 -16 -16 -16 -17 -17 -17 -17 -18 -18 -18 -18 -18 -18 -18 -19 -18 -18 -18 -17 -17 -16 -15 -15 -15
-14 -14 -14 -15 -15 -15 -15 -15 -15 -15 -15 -15 -15 -16 -16 -16 -16 -17 -17 -17 -17 -18 -18 -18 -19 -19 -18 -18 -18 -19 -18 -18 -17 -17 -16 -16 -15 -15
-14 -15 -15 -15 -15 -15 -15 -15 -15 -16 -16 -16 -16 -16 -16 -16 -16 -17 -17 -17 -17 -17 -18 -19 -19 -19 -19 -19 -18 -18 -19 -18 -18 -18 -17 -17 -16 -16
-15 -15 -15 -16 -16 -16 -16 -16 -16 -16 -16 -16 -16 -16 -16 -16 -17 -17 -17 -17 -18 -18 -18 -18 -19 -19 -19 -19 -19 -19 -19 -18 -18 -18 -18 -17 -17 -17
-16 -16 -16 -16 -17 -17 -17 -17 -17 -17 -17 -17 -17 -17 -17 -17 -17 -17 -17 -17 -18 -18 -18 -18 -19 -19 -19 -19 -19 -19 -19 -19 -18 -18 -18 -18 -17 -17
-16 -17 -17 -17 -17 -17 -17 -17 -17 -17 -17 -17 -17 -17 -17 -17 -17 -17 -18 -18 -18 -18 -18 -18 -19 -19 -19 -19 -19 -19 -19 -19 -19 -19 -19 -18 -18 -18
Height
3114 3112 3110 3109 3107 3106 3103 3101 3099 3098 3100 3100 3096 3094 3091 3089 3084 3082 3080 3077 3074 3072 3070 3069 3067 3065 3063 3062 3061 3061 3060 3059 3057 3055 3053 3052 3050 3049
3107 3106 3105 3103 3101 3099 3096 3094 3092 3088 3087 3091 3088 3084 3081 3077 3074 3071 3069 3066 3064 3061 3059 3056 3055 3052 3050 3049 3049 3048 3048 3048 3047 3046 3045 3043 3042 3042
3101 3100 3098 3096 3094 3092 3089 3087 3084 3080 3075 3077 3077 3075 3071 3066 3063 3059 3055 3051 3050 3048 3045 3043 3041 3038 3036 3035 3034 3035 3035 3035 3035 3035 3035 3033 3033 3033
3094 3093 3091 3089 3087 3085 3082 3079 3076 3071 3065 3061 3061 3062 3058 3055 3051 3048 3043 3038 3034 3033 3030 3028 3026 3023 3022 3020 3019 3019 3019 3019 3020 3021 3021 3022 3021 3022
3087 3086 3084 3082 3079 3076 3073 3070 3066 3062 3056 3050 3044 3042 3040 3040 3035 3033 3029 3027 3023 3017 3015 3013 3009 3008 3006 3005 3003 3002 3001 3001 3002 3004 3006 3008 3009 3009
3080 3078 3075 3072 3069 3066 3063 3059 3054 3050 3046 3041 3033 3026 3023 3021 3017 3013 3011 3011 3005 3005 3001 2997 2994 2993 2990 2987 2985 2984 2983 2983 2984 2986 2988 2990 2993 2995
3070 3068 3065 3062 3058 3054 3050 3046 3041 3036 3032 3027 3021 3015 3011 3008 3003 2999 2994 2988 2987 2988 2985 2982 2981 2977 2976 2973 2969 2966 2965 2964 2965 2967 2969 2972 2975 2979
3062 3058 3054 3051 3047 3042 3037 3032 3027 3022 3019 3013 3009 3004 3000 2996 2991 2986 2980 2976 2971 2973 2967 2965 2967 2964 2962 2958 2955 2953 2951 2949 2949 2949 2951 2953 2956 2960
3051 3047 3044 3039 3034 3029 3025 3021 3017 3012 3007 3001 2997 2994 2989 2986 2980 2975 2970 2966 2962 2961 2954 2948 2952 2948 2948 2945 2944 2941 2938 2936 2934 2934 2934 2936 2938 2943
3039 3035 3030 3027 3023 3018 3014 3010 3008 3004 2999 2995 2990 2985 2979 2974 2970 2964 2959 2955 2953 2952 2946 2939 2942 2936 2933 2933 2932 2929 2927 2924 2922 2921 2920 2921 2924 2927
3028 3023 3019 3015 3011 3008 3004 3000 2998 2996 2991 2986 2981 2976 2972 2967 2962 2957 2953 2947 2943 2942 2938 2931 2931 2924 2922 2922 2921 2919 2916 2913 2911 2909 2908 2907 2909 2913
3018 3013 3009 3005 3001 2998 2994 2991 2988 2984 2981 2978 2974 2969 2964 2959 2955 2950 2944 2939 2934 2930 2929 2923 2919 2915 2909 2911 2909 2907 2905 2904 2900 2898 2897 2896 2897 2900
3007 3005 3001 2997 2992 2989 2985 2982 2979 2975 2972 2967 2963 2959 2955 2951 2947 2943 2938 2933 2928 2923 2921 2915 2911 2908 2904 2898 2898 2897 2895 2893 2890 2888 2886 2885 2886 2888
2998 2995 2991 2988 2984 2981 2978 2975 2971 2967 2963 2959 2956 2952 2948 2944 2940 2935 2931 2927 2921 2916 2914 2909 2903 2900 2895 2891 2889 2888 2887 2885 2881 2879 2875 2874 2876 2878
2989 2986 2983 2980 2977 2975 2971 2968 2963 2960 2956 2953 2949 2945 2941 2937 2932 2928 2924 2919 2915 2911 2907 2902 2897 2893 2890 2885 2882 2880 2878 2877 2875 2871 2867 2866 2867 2870
2981 2979 2976 2973 2970 2967 2963 2960 2956 2953 2949 2945 2942 2938 2934 2930 2926 2921 2916 2912 2907 2905 2902 2897 2891 2886 2883 2880 2876 2874 2873 2868 2867 2865 2861 2861 2862 2864
2976 2973 2969 2966 2962 2959 2956 2953 2950 2946 2942 2938 2935 2930 2926 2921 2918 2914 2909 2904 2899 2895 2893 2891 2886 2881 2877 2874 2870 2868 2866 2864 2863 2860 2857 2857 2858 2858
2968 2965 2961 2958 2954 2951 2948 2945 2943 2939 2936 2931 2927 2923 2918 2914 2910 2906 2902 2897 2892 2889 2885 2882 2878 2875 2873 2871 2866 2863 2862 2860 2859 2857 2854 2854 2854 2855
2960 2957 2953 2950 2947 2944 2940 2937 2934 2931 2928 2925 2921 2916 2912 2908 2904 2900 2895 2890 2886 2882 2879 2875 2871 2867 2864 2863 2863 2860 2857 2857 2855 2855 2854 2853 2853 2853
2952 2949 2946 2942 2939 2936 2933 2930 2927 2924 2920 2917 2913 2910 2906 2902 2898 2894 2890 2885 2881 2877 2873 2870 2866 2862 2859 2857 2855 2857 2854 2852 2852 2851 2852 2852 2851 2853
2944 2942 2938 2935 2931 2928 2925 2922 2919 2916 2913 2910 2907 2903 2900 2896 2892 2889 2885 2881 2876 2871 2867 2864 2861 2857 2855 2853 2851 2851 2850 2848 2848 2849 2849 2850 2851 2852
2937 2934 2931 2927 2924 2921 2918 2915 2913 2910 2906 2903 2900 2897 2894 2891 2887 2883 2879 2875 2871 2867 2863 2859 2855 2852 2850 2849 2848 2847 2846 2845 2845 2846 2846 2847 2849 2849
2930 2927 2924 2921 2918 2915 2912 2909 2907 2904 2900 2897 2894 2891 2888 2885 2881 2877 2873 2870 2865 2861 2858 2854 2851 2847 2845 2845 2844 2844 2844 2843 2842 2843 2843 2844 2845 2846
Wind_Speed
28 27 27 27 28 28 29 30 32 31 26 26 30 32 34 35 38 40 41 42 43 44 45 44 44 43 42 40 38 35 34 32 32 32 30 28 27 26
26 26 26 26 27 28 29 30 33 37 38 33 36 39 41 43 45 46 46 47 48 48 49 50 50 49 48 47 45 43 40 38 36 35 35 33 31 28
22 23 24 26 28 31 33 35 38 41 45 43 41 42 45 48 49 51 52 53 53 52 53 53 53 53 53 53 51 48 47 45 42 40 40 39 37 34
25 26 28 30 32 34 37 39 41 44 48 51 49 46 48 48 51 52 53 55 56 55 55 55 55 55 54 54 53 52 51 50 48 47 45 43 43 40
27 29 32 34 36 38 40 42 44 46 49 52 54 54 53 52 54 53 54 54 55 56 56 55 56 55 55 54 53 53 54 53 52 50 49 48 46 45
31 33 35 37 40 42 43 45 47 49 50 52 54 56 55 53 53 54 54 52 53 51 51 51 51 50 50 51 52 52 53 54 54 53 51 50 49 48
33 36 39 41 43 45 47 48 49 50 50 50 52 53 52 51 51 51 51 52 49 47 45 44 43 44 43 45 48 50 50 51 52 54 55 52 50 49
36 39 41 43 45 46 47 47 48 48 47 48 48 47 47 47 47 47 48 48 50 46 45 43 38 38 37 38 40 42 44 47 49 51 54 55 53 50
40 42 43 44 45 46 45 44 43 41 41 42 42 43 45 45 46 47 46 46 46 45 45 48 42 42 39 39 37 38 39 40 42 45 48 51 53 50
43 45 45 44 42 41 40 37 35 34 35 37 39 42 43 44 43 43 43 46 46 43 43 46 41 42 40 37 35 34 35 36 37 39 40 43 48 50
43 42 42 39 37 35 35 34 33 31 33 35 38 38 37 36 35 38 40 42 44 42 40 43 39 41 38 34 32 30 31 33 34 35 37 38 39 43
39 38 37 36 35 34 35 34 32 32 31 31 30 29 28 29 31 35 39 42 43 43 39 37 35 34 39 35 32 30 29 28 31 33 35 36 35 35
36 34 34 35 35 34 31 31 30 30 29 29 29 29 29 29 30 31 33 36 38 39 36 36 37 36 36 38 32 31 28 25 25 28 31 34 33 31
35 35 34 31 28 26 28 28 28 28 28 28 29 29 29 30 30 31 32 32 32 34 33 33 35 34 35 35 34 29 23 23 24 27 30 32 32 28
32 28 25 24 25 26 27 27 27 27 27 28 29 30 30 30 30 31 31 31 31 29 29 30 32 32 32 33 34 30 28 24 22 25 24 25 26 25
25 25 26 27 27 27 26 26 26 27 28 30 30 31 31 30 29 30 32 31 30 27 24 25 27 30 29 30 31 31 28 28 24 25 16 14 20 21
26 27 27 27 27 26 26 26 26 26 28 30 31 32 33 32 32 30 32 32 32 31 27 23 23 26 27 28 29 26 24 22 21 23 16 14 16 17
27 28 28 28 29 29 28 28 27 27 28 29 30 31 31 31 30 28 28 29 30 29 28 26 26 24 23 21 24 26 20 20 18 19 12 11 12 8
28 28 28 28 29 29 29 29 28 28 27 27 27 28 28 28 27 26 26 27 27 27 25 23 23 25 26 22 17 18 21 17 18 14 9 5 11 15
29 28 28 29 29 29 29 28 27 27 27 27 27 25 24 25 25 25 25 25 26 26 24 20 21 23 25 23 22 12 16 17 17 15 11 10 6 11
29 28 28 29 28 28 27 26 26 26 26 26 25 24 23 25 25 26 26 25 26 26 25 21 19 21 22 20 19 16 13 14 18 16 12 9 7 9
28 27 26 26 25 25 25 25 24 24 25 25 24 23 24 25 26 26 26 27 26 25 24 22 19 19 19 18 15 14 14 11 12 12 13 10 10 10
26 25 24 23 23 23 23 23 23 23 23 24 23 23 23 24 25 26 26 26 27 26 24 21 19 18 17 16 15 13 8 7 9 10 11 13 12 12
Wind_Direction
300 298 298 299 299 299 298 298 297 296 291 289 289 290 290 290 290 291 291 291 291 291 291 290 289 289 288 287 285 284 282 280 279 282 285 286 285 278
297 297 298 298 299 299 299 298 297 297 296 292 290 291 292 292 292 291 290 290 289 289 289 289 288 287 285 284 283 281 279 278 276 275 277 280 281 280
296 297 297 297 297 296 296 296 296 296 296 295 292 291 290 290 290 291 291 290 289 288 287 286 285 284 284 283 281 280 278 276 274 273 272 273 275 276
294 295 295 296 295 295 295 296 297 297 297 297 296 294 292 291 290 289 289 289 289 288 286 286 284 282 281 280 280 279 277 275 272 270 268 268 270 270
293 294 295 295 296 297 297 297 296 296 296 298 298 298 295 294 291 291 290 289 288 288 287 287 285 283 282 280 278 275 274 272 270 268 266 265 264 267
294 295 296 297 297 298 298 298 298 297 296 296 296 296 297 298 297 296 293 292 290 287 287 285 282 281 280 278 276 273 270 268 267 266 264 262 260 259
296 298 299 300 301 300 299 298 296 296 296 296 295 297 298 299 300 300 299 299 296 295 293 289 288 284 280 276 274 273 272 268 264 261 260 259 257 255
298 299 300 301 301 300 299 299 299 299 298 298 299 301 302 304 303 303 302 302 301 303 302 298 293 288 285 279 276 274 273 271 269 264 259 257 254 251
301 302 303 303 302 301 300 300 300 300 302 303 304 304 304 304 303 303 302 302 301 302 302 300 300 295 292 285 282 281 279 276 272 269 266 260 256 252
304 305 305 304 303 303 302 301 301 302 301 301 301 303 304 306 307 305 303 302 300 300 301 301 300 298 295 291 290 287 283 280 278 275 270 264 261 256
306 306 305 306 307 305 303 302 302 301 302 305 306 306 305 305 302 299 302 301 302 303 304 303 303 299 297 294 290 288 285 283 281 278 274 269 261 256
306 306 306 306 304 303 302 303 304 306 307 307 309 314 313 310 305 301 302 302 304 306 308 308 307 307 304 302 299 294 289 284 281 277 273 271 268 256
306 305 303 303 301 301 300 303 305 308 311 315 319 321 320 316 312 308 304 302 302 301 304 302 302 303 300 302 302 300 299 294 280 279 271 266 264 258
306 305 304 302 299 297 299 301 305 309 313 317 318 318 316 314 312 310 308 307 304 304 306 303 302 302 300 299 301 302 305 302 292 292 286 265 257 251
306 309 310 306 301 299 299 301 304 307 309 311 314 316 314 313 311 311 311 310 308 309 308 305 302 300 297 297 298 302 308 306 299 303 291 271 258 242
311 312 308 301 299 299 301 303 303 305 309 311 313 313 313 312 313 312 312 313 312 312 308 304 300 298 299 297 296 298 303 304 306 311 280 266 260 230
307 308 306 304 303 300 300 301 302 305 307 307 309 311 312 311 311 310 309 309 309 310 310 308 300 297 299 299 298 299 298 298 305 316 297 256 261 232
310 310 309 307 306 304 302 300 299 300 302 303 307 311 313 314 314 313 311 309 309 309 309 306 303 301 296 293 295 295 293 299 304 315 310 233 233 252
311 311 309 306 304 304 302 299 299 301 302 302 305 309 312 315 317 318 317 315 314 313 311 307 301 298 299 304 300 297 292 283 295 300 304 233 216 244
310 309 306 305 303 302 301 300 300 301 304 304 306 308 309 312 318 320 320 320 319 319 318 309 298 291 293 301 304 306 287 269 277 295 295 295 253 243
308 307 305 304 302 301 301 301 302 304 305 305 307 307 308 313 316 316 316 318 319 321 321 320 301 290 290 294 297 304 303 274 260 274 283 278 264 253
306 306 305 304 303 302 302 302 303 305 305 305 306 306 308 313 314 316 319 319 319 319 319 319 307 295 287 287 293 300 311 281 264 258 263 266 248 238
306 308 309 308 306 304 303 303 304 306 306 307 307 307 309 311 312 313 314 316 317 319 317 317 313 298 290 281 275 273 283 299 291 275 274 258 251 244